Weather reports worldwide

Advertisment
Villanueva De Cordoba, Spain (8346): temperature & dewpoint: 16.08.2019 20:00:00 - 22.08.2019 20:00:00 (CEST)Villanueva De Cordoba, Spain (8346): wind speed & gusts: 16.08.2019 20:00:00 - 22.08.2019 20:00:00 (CEST)Villanueva De Cordoba, Spain (8346): wind direction: 16.08.2019 20:00:00 - 22.08.2019 20:00:00 (CEST)Villanueva De Cordoba, Spain (8346): reduced air pressure: 16.08.2019 20:00:00 - 22.08.2019 20:00:00 (CEST)Villanueva De Cordoba, Spain (8346): visibility: 16.08.2019 20:00:00 - 22.08.2019 20:00:00 (CEST)Villanueva De Cordoba, Spain (8346): sunshine duration: 16.08.2019 20:00:00 - 22.08.2019 20:00:00 (CEST)Villanueva De Cordoba, Spain (8346): precipitation: 16.08.2019 20:00:00 - 22.08.2019 20:00:00 (CEST)
Date & Time tt [°C] td [°C] ff [km/h] ff [kn] fx [km/h] fx [kn] dd ppp [hPa] vv [km] sd [min] rr [mm]
22.08.2019 20:00:00 - - - - - - - - - - -
22.08.2019 19:00:00 31,8 6,1 4 2 21 11 NNE 1012,6 20 11 0,0
22.08.2019 18:00:00 33,9 7,0 13 7 25 14 ENE 1012,2 6 59 0,0
22.08.2019 17:00:00 33,7 6,1 8 4 25 14 WSW 1012,6 20 44 0,0
22.08.2019 16:00:00 33,7 7,6 5 3 30 16 S 1013,1 20 60 0,0
22.08.2019 15:00:00 31,6 6,5 12 6 27 15 E 1014,4 20 51 0,0
22.08.2019 14:00:00 31,5 10,3 9 5 29 16 E 1014,9 20 59 -
22.08.2019 13:00:00 30,0 10,5 10 5 23 12 E 1015,8 20 60 0,0
22.08.2019 12:00:00 28,2 12,5 10 6 24 13 E 1016,5 20 60 0,0
22.08.2019 11:00:00 26,6 14,7 8 5 19 11 E 1016,8 20 60 0,0
22.08.2019 10:00:00 24,1 15,9 4 2 9 5 NNW 1017,5 20 60 0,0
22.08.2019 09:00:00 20,5 15,5 4 2 9 5 E 1018,4 20 45 0,0
22.08.2019 08:00:00 18,1 14,6 8 4 11 6 ENE 1018,7 20 0 -
22.08.2019 07:00:00 19,1 15,0 6 4 14 7 S 1017,9 20 0 0,0
22.08.2019 06:00:00 19,6 14,6 8 5 15 8 S 1017,6 20 0 0,0
22.08.2019 05:00:00 20,2 14,3 7 4 14 7 S 1017,8 20 0 0,0
22.08.2019 04:00:00 21,2 13,9 8 4 13 7 S 1017,6 20 0 0,0
22.08.2019 03:00:00 22,2 13,6 6 4 11 6 SSE 1017,4 20 0 0,0
22.08.2019 02:00:00 23,5 13,1 7 4 16 9 SSE 1017,1 20 0 -
22.08.2019 01:00:00 24,6 12,5 8 5 22 12 SSE 1017,0 20 0 0,0
22.08.2019 00:00:00 25,9 12,3 9 5 26 14 SE 1016,1 20 0 0,0
21.08.2019 23:00:00 26,0 11,7 12 7 27 15 E 1015,5 20 0 0,0
21.08.2019 22:00:00 27,1 8,5 5 3 8 5 WSW 1014,5 20 0 0,0
21.08.2019 21:00:00 29,1 8,8 4 2 13 7 W 1013,4 20 10 0,0
21.08.2019 20:00:00 30,6 8,9 2 1 17 9 N 1012,7 20 57 -
21.08.2019 19:00:00 31,0 9,3 8 5 23 12 NW 1012,5 7 47 0,0
21.08.2019 18:00:00 31,1 11,0 14 7 27 15 WSW 1012,4 14 20 0,0
21.08.2019 17:00:00 30,7 10,6 6 3 21 12 W 1012,9 20 22 0,0
21.08.2019 16:00:00 29,2 11,2 10 5 19 11 WNW 1013,7 20 14 0,0
21.08.2019 15:00:00 30,5 11,4 7 4 19 11 SSW 1013,9 20 12 0,0
21.08.2019 14:00:00 29,0 12,4 8 5 20 11 WSW 1014,5 20 23 -
21.08.2019 13:00:00 29,1 12,5 8 4 24 13 SSE 1015,1 20 28 0,0
21.08.2019 12:00:00 28,1 13,3 6 3 22 12 SSW 1015,8 20 40 0,0
21.08.2019 11:00:00 27,0 14,7 10 5 28 15 S 1016,0 20 56 0,0
21.08.2019 10:00:00 23,6 15,6 12 6 23 13 SSW 1016,8 20 26 0,0
21.08.2019 09:00:00 20,9 15,4 11 6 21 11 SSW 1017,1 19 36 0,0
21.08.2019 08:00:00 19,4 14,0 9 5 17 9 SSW 1017,4 20 0 -
21.08.2019 07:00:00 19,5 12,2 7 4 17 9 S 1017,2 20 0 0,0
21.08.2019 06:00:00 19,8 10,2 10 6 24 13 S 1016,9 20 0 0,0
21.08.2019 05:00:00 19,6 1,5 12 6 22 12 S 1016,8 20 0 0,0
21.08.2019 04:00:00 20,1 0,4 11 6 19 10 S 1016,8 20 0 0,0
21.08.2019 03:00:00 21,8 -1,4 9 5 16 8 SSE 1016,3 20 0 0,0
21.08.2019 02:00:00 23,1 -2,5 5 3 9 5 SW 1015,5 20 0 -
21.08.2019 01:00:00 23,4 -2,2 7 4 10 5 W 1015,3 20 0 0,0
21.08.2019 00:00:00 24,3 -2,2 7 4 13 7 W 1015,0 20 0 0,0
20.08.2019 23:00:00 24,2 -2,5 5 3 9 5 SW 1015,2 20 0 0,0
20.08.2019 22:00:00 26,3 -2,5 6 4 14 7 SSW 1013,8 20 0 0,0
20.08.2019 21:00:00 29,6 -3,9 5 3 14 8 NNW 1012,5 20 53 0,0
20.08.2019 20:00:00 32,3 -4,8 2 1 21 11 W 1011,5 20 60 -
20.08.2019 19:00:00 32,7 -4,5 5 3 20 11 WNW 1011,4 20 60 0,0
20.08.2019 18:00:00 32,1 -4,8 11 6 31 17 NW 1011,8 20 60 0,0
20.08.2019 17:00:00 32,9 -4,2 6 3 22 12 NE 1011,7 20 60 0,0
20.08.2019 16:00:00 32,3 -3,3 11 6 24 13 W 1012,5 20 60 0,0
20.08.2019 15:00:00 31,0 -3,0 8 4 23 13 N 1013,1 4,5 60 0,0
20.08.2019 14:00:00 30,9 -2,0 11 6 23 12 WSW 1013,3 20 60 -
20.08.2019 13:00:00 30,3 -2,2 5 3 19 10 S 1013,9 20 60 0,0
20.08.2019 12:00:00 28,6 -1,4 8 4 17 9 WSW 1014,3 20 60 0,0
20.08.2019 11:00:00 26,3 0,9 8 4 16 9 W 1014,4 20 60 0,0
20.08.2019 10:00:00 22,5 3,0 4 2 17 9 NE 1015,0 20 43 0,0
20.08.2019 09:00:00 18,8 2,7 5 3 9 5 NNE 1015,7 11 4 0,0
20.08.2019 08:00:00 18,3 2,5 6 3 11 6 NW 1015,6 20 0 -
20.08.2019 07:00:00 18,0 3,4 8 4 14 7 NW 1015,2 20 0 0,0
20.08.2019 06:00:00 18,8 3,8 8 4 18 10 NNW 1015,1 20 0 0,0
20.08.2019 05:00:00 19,1 2,5 9 5 14 8 NW 1014,9 20 0 0,0
20.08.2019 04:00:00 20,0 0,9 7 4 20 11 NW 1014,6 20 0 0,0
20.08.2019 03:00:00 20,8 0,0 10 5 21 11 NW 1014,7 20 0 0,0
20.08.2019 02:00:00 21,9 -0,7 9 5 16 9 NW 1014,8 20 0 -
20.08.2019 01:00:00 22,9 0,6 9 5 16 9 NW 1014,4 20 0 0,0
20.08.2019 00:00:00 23,9 0,9 9 5 21 11 NNW 1014,0 20 0 0,0
19.08.2019 23:00:00 25,3 1,5 6 4 17 9 NNW 1013,4 20 0 0,0
19.08.2019 22:00:00 26,9 0,6 10 5 22 12 NNW 1012,3 20 0 0,0
19.08.2019 21:00:00 29,2 1,7 14 7 33 18 NW 1011,2 20 11 0,0
19.08.2019 20:00:00 32,0 8,9 13 7 26 14 SW 1009,5 20 47 -
19.08.2019 19:00:00 33,9 7,8 13 7 34 18 SW 1009,2 20 60 0,0
19.08.2019 18:00:00 34,6 5,9 13 7 35 19 SSW 1009,3 20 60 0,0
19.08.2019 17:00:00 34,4 6,7 13 7 37 20 SSW 1009,9 20 60 0,0
19.08.2019 16:00:00 34,3 7,4 15 8 29 16 WSW 1010,4 20 60 0,0
19.08.2019 15:00:00 32,1 8,4 13 7 26 14 WSW 1011,5 20 60 0,0
19.08.2019 14:00:00 31,9 7,6 10 5 27 14 SW 1011,9 20 60 -
19.08.2019 13:00:00 30,9 4,6 10 6 25 13 WSW 1012,5 20 60 0,0
19.08.2019 12:00:00 30,1 6,1 9 5 27 15 SSW 1012,6 20 60 0,0
19.08.2019 11:00:00 27,9 10,2 8 4 16 8 SSW 1013,0 20 60 0,0
19.08.2019 10:00:00 25,2 12,1 3 1 8 4 WSW 1013,6 20 60 0,0
19.08.2019 09:00:00 20,2 14,3 5 3 14 8 NNW 1015,1 18 60 0,0
19.08.2019 08:00:00 18,7 13,9 8 4 14 8 NW 1015,5 11 1 -
19.08.2019 07:00:00 18,9 13,9 5 3 11 6 WNW 1015,0 20 0 0,0
19.08.2019 06:00:00 19,5 13,9 7 4 9 5 WNW 1014,7 20 0 0,0
19.08.2019 05:00:00 20,2 13,2 7 4 14 8 NW 1014,5 20 0 0,0
19.08.2019 04:00:00 20,8 11,7 8 5 16 9 NW 1014,6 20 0 0,0
19.08.2019 03:00:00 21,8 9,9 9 5 18 10 NW 1014,8 20 0 0,0
19.08.2019 02:00:00 22,9 7,8 10 5 20 11 NNW 1014,7 20 0 -
19.08.2019 01:00:00 24,0 4,8 10 5 18 10 WNW 1014,4 20 0 0,0
19.08.2019 00:00:00 24,9 3,6 6 4 16 9 NW 1014,0 20 0 0,0
18.08.2019 23:00:00 26,0 3,2 9 5 18 10 NW 1013,5 20 0 0,0
18.08.2019 22:00:00 27,1 4,1 8 4 24 13 NW 1012,2 20 0 0,0
18.08.2019 21:00:00 30,0 3,0 10 5 29 16 NW 1010,8 20 51 0,0
18.08.2019 20:00:00 32,2 0,2 18 10 43 23 NW 1009,9 20 59 -
18.08.2019 19:00:00 34,3 1,9 14 8 37 20 NNW 1009,0 20 56 0,0
18.08.2019 18:00:00 35,7 4,1 13 7 37 20 W 1008,5 20 60 0,0
18.08.2019 17:00:00 36,3 3,4 20 11 41 22 WSW 1008,6 20 60 0,0
18.08.2019 16:00:00 35,9 3,2 16 9 36 20 WSW 1009,0 20 60 0,0
18.08.2019 15:00:00 35,6 3,9 9 5 36 20 SSW 1009,5 20 60 0,0
18.08.2019 14:00:00 34,6 3,2 15 8 32 17 WSW 1010,3 20 60 -
18.08.2019 13:00:00 34,0 3,8 11 6 25 13 WSW 1011,0 20 60 0,0
18.08.2019 12:00:00 32,4 4,3 6 4 21 11 WSW 1011,6 20 60 0,0
18.08.2019 11:00:00 29,7 5,0 6 3 17 9 NW 1012,1 20 60 0,0
18.08.2019 10:00:00 27,4 5,6 7 4 16 9 NW 1012,3 20 60 0,0
18.08.2019 09:00:00 23,7 6,8 5 3 17 9 N 1012,8 20 60 0,0
18.08.2019 08:00:00 22,2 5,9 8 5 16 8 NNW 1013,0 20 1 -
18.08.2019 07:00:00 22,3 0,6 7 4 10 5 WNW 1012,9 20 0 0,0
18.08.2019 06:00:00 22,1 3,2 4 2 8 5 S 1012,7 20 0 0,0
18.08.2019 05:00:00 22,8 0,0 4 2 12 6 SW 1013,0 20 0 0,0
18.08.2019 04:00:00 22,9 0,0 8 4 11 6 S 1013,3 20 0 0,0
18.08.2019 03:00:00 25,4 -1,4 6 4 15 8 W 1012,7 20 0 0,0
18.08.2019 02:00:00 26,4 -0,7 8 4 16 9 NW 1012,6 20 0 -
18.08.2019 01:00:00 26,6 2,5 9 5 17 9 NW 1012,6 20 0 0,0
18.08.2019 00:00:00 27,7 5,3 8 4 13 7 NW 1012,1 20 0 0,0
17.08.2019 23:00:00 29,1 3,8 8 5 18 10 WNW 1011,6 20 0 0,0
17.08.2019 22:00:00 30,1 0,6 9 5 17 9 SSW 1010,6 20 0 0,0
17.08.2019 21:00:00 33,2 0,0 9 5 28 15 SSW 1009,6 20 51 0,0
17.08.2019 20:00:00 35,5 0,4 14 7 29 16 SW 1008,9 20 60 -
17.08.2019 19:00:00 36,5 0,0 14 8 31 17 W 1008,9 20 60 0,0
17.08.2019 18:00:00 37,2 1,9 10 5 33 18 S 1009,2 20 60 0,0
17.08.2019 17:00:00 37,7 0,9 16 8 34 19 SSW 1009,5 20 60 0,0
17.08.2019 16:00:00 37,3 4,3 11 6 35 19 S 1010,0 20 60 0,0
17.08.2019 15:00:00 36,3 3,4 18 10 32 17 SW 1011,0 20 60 0,0
17.08.2019 14:00:00 35,5 3,9 16 9 33 18 SSW 1011,7 20 60 -
17.08.2019 13:00:00 35,0 6,2 10 5 26 14 S 1012,3 20 60 0,0
17.08.2019 12:00:00 33,5 6,7 6 3 23 12 SSE 1013,2 20 60 0,0
17.08.2019 11:00:00 31,7 7,4 8 4 17 9 SE 1013,7 20 60 0,0
17.08.2019 10:00:00 28,8 8,0 6 3 11 6 S 1014,5 20 60 0,0
17.08.2019 09:00:00 24,1 8,5 8 5 15 8 S 1015,6 20 60 0,0
17.08.2019 08:00:00 21,8 8,7 8 4 11 6 SSE 1015,9 20 2 -
17.08.2019 07:00:00 21,4 8,7 6 3 14 7 S 1015,8 20 0 0,0
17.08.2019 06:00:00 21,3 8,5 8 4 12 6 S 1015,8 20 0 0,0
17.08.2019 05:00:00 22,2 8,3 7 4 12 7 S 1015,7 20 0 0,0
17.08.2019 04:00:00 23,9 8,0 8 4 11 6 SSE 1015,2 20 0 0,0
17.08.2019 03:00:00 25,3 7,4 7 4 13 7 SW 1015,0 20 0 0,0
17.08.2019 02:00:00 26,1 7,7 6 3 14 7 SW 1014,9 20 0 -
17.08.2019 01:00:00 26,6 7,6 9 5 18 10 SW 1015,0 20 0 0,0
17.08.2019 00:00:00 28,3 8,0 9 5 22 12 SW 1014,5 20 0 0,0
16.08.2019 23:00:00 29,5 7,4 10 6 24 13 SW 1014,1 20 0 0,0
16.08.2019 22:00:00 30,0 6,5 10 5 24 13 W 1013,5 20 0 0,0
16.08.2019 21:00:00 32,7 6,1 14 7 29 16 SW 1011,8 20 32 0,0
16.08.2019 20:00:00 34,7 5,1 16 9 33 18 SW 1011,0 20 56 -

tt = temperature
td = dewpoint
ff = wind speed
fx = gusts
dd = wind direction
ppp = reduced air pressure
vv = visibility
sd = sunshine duration
rr = precipitation

Next stations